Year,Month,Day,Hour,Minute,Value (Times are PST for insolation in W/m^2)
2011,05,01,00,00,0.00
2011,05,01,00,01,0.00
2011,05,01,00,02,0.00
2011,05,01,00,03,0.00
2011,05,01,00,04,0.00
2011,05,01,00,05,0.00
2011,05,01,00,06,0.00
2011,05,01,00,07,0.00
2011,05,01,00,08,0.00
2011,05,01,00,09,0.00
2011,05,01,00,10,0.00
2011,05,01,00,11,0.00
2011,05,01,00,12,0.00
2011,05,01,00,13,0.00
2011,05,01,00,14,0.00
2011,05,01,00,15,0.00
2011,05,01,00,16,0.00
2011,05,01,00,17,0.00
2011,05,01,00,18,0.00
2011,05,01,00,19,0.00
2011,05,01,00,20,0.00
2011,05,01,00,21,0.00
2011,05,01,00,22,0.00
2011,05,01,00,23,0.00
2011,05,01,00,24,0.00
2011,05,01,00,25,0.00
2011,05,01,00,26,0.00
2011,05,01,00,27,0.00
2011,05,01,00,28,0.00
2011,05,01,00,29,0.00
2011,05,01,00,30,0.00
2011,05,01,00,31,0.00
2011,05,01,00,32,0.00
2011,05,01,00,33,0.00
2011,05,01,00,34,0.00
2011,05,01,00,35,0.00
2011,05,01,00,36,0.00
2011,05,01,00,37,0.00
2011,05,01,00,38,0.00
2011,05,01,00,39,0.00
2011,05,01,00,40,0.00
2011,05,01,00,41,0.00
2011,05,01,00,42,0.00
2011,05,01,00,43,0.00
2011,05,01,00,44,0.00
2011,05,01,00,45,0.00
2011,05,01,00,46,0.00
2011,05,01,00,47,0.00
2011,05,01,00,48,0.00
2011,05,01,00,49,0.00
2011,05,01,00,50,0.00
2011,05,01,00,51,0.00
2011,05,01,00,52,0.00
2011,05,01,00,53,0.00
2011,05,01,00,54,0.00
2011,05,01,00,55,0.00
2011,05,01,00,56,0.00
2011,05,01,00,57,0.00
2011,05,01,00,58,0.00
2011,05,01,00,59,0.00
2011,05,01,01,00,0.00
2011,05,01,01,01,0.00
2011,05,01,01,02,0.00
2011,05,01,01,03,0.00
2011,05,01,01,04,0.00
2011,05,01,01,05,0.00
2011,05,01,01,06,0.00
2011,05,01,01,07,0.00
2011,05,01,01,08,0.00
2011,05,01,01,09,0.00
2011,05,01,01,10,0.00
2011,05,01,01,11,0.00
2011,05,01,01,12,0.00
2011,05,01,01,13,0.00
2011,05,01,01,14,0.00
2011,05,01,01,15,0.00
2011,05,01,01,16,0.00
2011,05,01,01,17,0.00
2011,05,01,01,18,0.00
2011,05,01,01,19,0.00
2011,05,01,01,20,0.00
2011,05,01,01,21,0.00
2011,05,01,01,22,0.00
2011,05,01,01,23,0.00
2011,05,01,01,24,0.00
2011,05,01,01,25,0.00
2011,05,01,01,26,0.00
2011,05,01,01,27,0.00
2011,05,01,01,28,0.00
2011,05,01,01,29,0.00
2011,05,01,01,30,0.00
2011,05,01,01,31,0.00
2011,05,01,01,32,0.00
2011,05,01,01,33,0.00
2011,05,01,01,34,0.00
2011,05,01,01,35,0.00
2011,05,01,01,36,0.00
2011,05,01,01,37,0.00
2011,05,01,01,38,0.00
2011,05,01,01,39,0.00
2011,05,01,01,40,0.00
2011,05,01,01,41,0.00
2011,05,01,01,42,0.00
2011,05,01,01,43,0.00
2011,05,01,01,44,0.00
2011,05,01,01,45,0.00
2011,05,01,01,46,0.00
2011,05,01,01,47,0.00
2011,05,01,01,48,0.00
2011,05,01,01,49,0.00
2011,05,01,01,50,0.00
2011,05,01,01,51,0.00
2011,05,01,01,52,0.00
2011,05,01,01,53,0.00
2011,05,01,01,54,0.00
2011,05,01,01,55,0.00
2011,05,01,01,56,0.00
2011,05,01,01,57,0.00
2011,05,01,01,58,0.00
2011,05,01,01,59,0.00
2011,05,01,02,00,0.00
2011,05,01,02,01,0.00
2011,05,01,02,02,0.00
2011,05,01,02,03,0.00
2011,05,01,02,04,0.00
2011,05,01,02,05,0.00
2011,05,01,02,06,0.00
2011,05,01,02,07,0.00
2011,05,01,02,08,0.00
2011,05,01,02,09,0.00
2011,05,01,02,10,0.00
2011,05,01,02,11,0.00
2011,05,01,02,12,0.00
2011,05,01,02,13,0.00
2011,05,01,02,14,0.00
2011,05,01,02,15,0.00
2011,05,01,02,16,0.00
2011,05,01,02,17,0.00
2011,05,01,02,18,0.00
2011,05,01,02,19,0.00
2011,05,01,02,20,0.00
2011,05,01,02,21,0.00
2011,05,01,02,22,0.00
2011,05,01,02,23,0.00
2011,05,01,02,24,0.00
2011,05,01,02,25,0.00
2011,05,01,02,26,0.00
2011,05,01,02,27,0.00
2011,05,01,02,28,0.00
2011,05,01,02,29,0.00
2011,05,01,02,30,0.00
2011,05,01,02,31,0.00
2011,05,01,02,32,0.00
2011,05,01,02,33,0.00
2011,05,01,02,34,0.00
2011,05,01,02,35,0.00
2011,05,01,02,36,0.00
2011,05,01,02,37,0.00
2011,05,01,02,38,0.00
2011,05,01,02,39,0.00
2011,05,01,02,40,0.00
2011,05,01,02,41,0.00
2011,05,01,02,42,0.00
2011,05,01,02,43,0.00
2011,05,01,02,44,0.00
2011,05,01,02,45,0.00
2011,05,01,02,46,0.00
2011,05,01,02,47,0.00
2011,05,01,02,48,0.00
2011,05,01,02,49,0.00
2011,05,01,02,50,0.00
2011,05,01,02,51,0.00
2011,05,01,02,52,0.00
2011,05,01,02,53,0.00
2011,05,01,02,54,0.00
2011,05,01,02,55,0.00
2011,05,01,02,56,0.00
2011,05,01,02,57,0.00
2011,05,01,02,58,0.00
2011,05,01,02,59,0.00
2011,05,01,03,00,0.00
2011,05,01,03,01,0.00
2011,05,01,03,02,0.00
2011,05,01,03,03,0.00
2011,05,01,03,04,0.00
2011,05,01,03,05,0.00
2011,05,01,03,06,0.00
2011,05,01,03,07,0.00
2011,05,01,03,08,0.00
2011,05,01,03,09,0.00
2011,05,01,03,10,0.00
2011,05,01,03,11,0.00
2011,05,01,03,12,0.00
2011,05,01,03,13,0.00
2011,05,01,03,14,0.00
2011,05,01,03,15,0.00
2011,05,01,03,16,0.00
2011,05,01,03,17,0.00
2011,05,01,03,18,0.00
2011,05,01,03,19,0.00
2011,05,01,03,20,0.00
2011,05,01,03,21,0.00
2011,05,01,03,22,0.00
2011,05,01,03,23,0.00
2011,05,01,03,24,0.00
2011,05,01,03,25,0.00
2011,05,01,03,26,0.00
2011,05,01,03,27,0.00
2011,05,01,03,28,0.00
2011,05,01,03,29,0.00
2011,05,01,03,30,0.00
2011,05,01,03,31,0.00
2011,05,01,03,32,0.00
2011,05,01,03,33,0.00
2011,05,01,03,34,0.00
2011,05,01,03,35,0.00
2011,05,01,03,36,0.00
2011,05,01,03,37,0.00
2011,05,01,03,38,0.00
2011,05,01,03,39,0.00
2011,05,01,03,40,0.00
2011,05,01,03,41,0.00
2011,05,01,03,42,0.00
2011,05,01,03,43,0.00
2011,05,01,03,44,0.00
2011,05,01,03,45,0.00
2011,05,01,03,46,0.00
2011,05,01,03,47,0.00
2011,05,01,03,48,0.00
2011,05,01,03,49,0.00
2011,05,01,03,50,0.00
2011,05,01,03,51,0.00
2011,05,01,03,52,0.00
2011,05,01,03,53,0.00
2011,05,01,03,54,0.00
2011,05,01,03,55,0.00
2011,05,01,03,56,0.00
2011,05,01,03,57,0.00
2011,05,01,03,58,0.00
2011,05,01,03,59,0.00
2011,05,01,04,00,0.00
2011,05,01,04,01,0.00
2011,05,01,04,02,0.00
2011,05,01,04,03,0.00
2011,05,01,04,04,0.00
2011,05,01,04,05,0.00
2011,05,01,04,06,0.00
2011,05,01,04,07,0.00
2011,05,01,04,08,0.00
2011,05,01,04,09,0.00
2011,05,01,04,10,0.00
2011,05,01,04,11,0.00
2011,05,01,04,12,0.00
2011,05,01,04,13,0.00
2011,05,01,04,14,0.00
2011,05,01,04,15,0.00
2011,05,01,04,16,0.00
2011,05,01,04,17,0.00
2011,05,01,04,18,0.00
2011,05,01,04,19,0.00
2011,05,01,04,20,0.00
2011,05,01,04,21,0.00
2011,05,01,04,22,0.00
2011,05,01,04,23,0.00
2011,05,01,04,24,0.00
2011,05,01,04,25,0.00
2011,05,01,04,26,0.00
2011,05,01,04,27,0.00
2011,05,01,04,28,0.00
2011,05,01,04,29,0.00
2011,05,01,04,30,0.00
2011,05,01,04,31,0.00
2011,05,01,04,32,0.00
2011,05,01,04,33,0.00
2011,05,01,04,34,0.00
2011,05,01,04,35,0.00
2011,05,01,04,36,0.00
2011,05,01,04,37,0.00
2011,05,01,04,38,0.00
2011,05,01,04,39,0.00
2011,05,01,04,40,0.00
2011,05,01,04,41,0.00
2011,05,01,04,42,0.00
2011,05,01,04,43,0.00
2011,05,01,04,44,0.00
2011,05,01,04,45,0.00
2011,05,01,04,46,0.00
2011,05,01,04,47,0.00
2011,05,01,04,48,0.00
2011,05,01,04,49,0.00
2011,05,01,04,50,0.00
2011,05,01,04,51,0.00
2011,05,01,04,52,0.00
2011,05,01,04,53,0.00
2011,05,01,04,54,0.00
2011,05,01,04,55,0.00
2011,05,01,04,56,0.00
2011,05,01,04,57,0.00
2011,05,01,04,58,0.00
2011,05,01,04,59,0.00
2011,05,01,05,00,0.00
2011,05,01,05,01,0.00
2011,05,01,05,02,0.00
2011,05,01,05,03,0.00
2011,05,01,05,04,0.00
2011,05,01,05,05,0.00
2011,05,01,05,06,0.00
2011,05,01,05,07,0.00
2011,05,01,05,08,0.00
2011,05,01,05,09,0.00
2011,05,01,05,10,0.00
2011,05,01,05,11,0.00
2011,05,01,05,12,0.00
2011,05,01,05,13,0.00
2011,05,01,05,14,0.00
2011,05,01,05,15,0.00
2011,05,01,05,16,0.00
2011,05,01,05,17,0.00
2011,05,01,05,18,0.00
2011,05,01,05,19,0.00
2011,05,01,05,20,0.00
2011,05,01,05,21,0.00
2011,05,01,05,22,0.00
2011,05,01,05,23,0.00
2011,05,01,05,24,0.00
2011,05,01,05,25,0.00
2011,05,01,05,26,0.00
2011,05,01,05,27,0.00
2011,05,01,05,28,0.00
2011,05,01,05,29,0.00
2011,05,01,05,30,0.00
2011,05,01,05,31,0.00
2011,05,01,05,32,0.00
2011,05,01,05,33,0.00
2011,05,01,05,34,0.00
2011,05,01,05,35,0.00
2011,05,01,05,36,0.00
2011,05,01,05,37,0.00
2011,05,01,05,38,0.00
2011,05,01,05,39,0.00
2011,05,01,05,40,0.00
2011,05,01,05,41,0.00
2011,05,01,05,42,0.00
2011,05,01,05,43,0.00
2011,05,01,05,44,0.00
2011,05,01,05,45,0.00
2011,05,01,05,46,0.00
2011,05,01,05,47,0.00
2011,05,01,05,48,0.00
2011,05,01,05,49,0.00
2011,05,01,05,50,0.00
2011,05,01,05,51,0.00
2011,05,01,05,52,0.00
2011,05,01,05,53,0.00
2011,05,01,05,54,0.00
2011,05,01,05,55,2.80
2011,05,01,05,56,5.00
2011,05,01,05,57,5.00
2011,05,01,05,58,5.00
2011,05,01,05,59,5.60
2011,05,01,06,00,7.00
2011,05,01,06,01,7.00
2011,05,01,06,02,8.40
2011,05,01,06,03,9.00
2011,05,01,06,04,9.30
2011,05,01,06,05,11.00
2011,05,01,06,06,11.00
2011,05,01,06,07,11.60
2011,05,01,06,08,12.00
2011,05,01,06,09,12.00
2011,05,01,06,10,14.00
2011,05,01,06,11,14.00
2011,05,01,06,12,14.90
2011,05,01,06,13,16.00
2011,05,01,06,14,16.00
2011,05,01,06,15,17.80
2011,05,01,06,16,18.00
2011,05,01,06,17,18.30
2011,05,01,06,18,19.00
2011,05,01,06,19,19.00
2011,05,01,06,20,20.50
2011,05,01,06,21,21.00
2011,05,01,06,22,21.00
2011,05,01,06,23,21.70
2011,05,01,06,24,24.00
2011,05,01,06,25,25.00
2011,05,01,06,26,25.80
2011,05,01,06,27,27.80
2011,05,01,06,28,28.50
2011,05,01,06,29,30.00
2011,05,01,06,30,31.10
2011,05,01,06,31,32.70
2011,05,01,06,32,34.50
2011,05,01,06,33,35.20
2011,05,01,06,34,37.50
2011,05,01,06,35,39.00
2011,05,01,06,36,39.50
2011,05,01,06,37,41.30
2011,05,01,06,38,43.70
2011,05,01,06,39,46.00
2011,05,01,06,40,47.50
2011,05,01,06,41,49.00
2011,05,01,06,42,50.10
2011,05,01,06,43,52.50
2011,05,01,06,44,53.90
2011,05,01,06,45,56.30
2011,05,01,06,46,58.60
2011,05,01,06,47,61.00
2011,05,01,06,48,62.60
2011,05,01,06,49,65.90
2011,05,01,06,50,68.80
2011,05,01,06,51,70.40
2011,05,01,06,52,72.60
2011,05,01,06,53,74.90
2011,05,01,06,54,77.80
2011,05,01,06,55,80.50
2011,05,01,06,56,83.00
2011,05,01,06,57,86.40
2011,05,01,06,58,88.60
2011,05,01,06,59,91.40
2011,05,01,07,00,94.20
2011,05,01,07,01,97.40
2011,05,01,07,02,101.90
2011,05,01,07,03,104.70
2011,05,01,07,04,108.50
2011,05,01,07,05,112.00
2011,05,01,07,06,115.00
2011,05,01,07,07,119.10
2011,05,01,07,08,121.30
2011,05,01,07,09,125.40
2011,05,01,07,10,128.00
2011,05,01,07,11,131.00
2011,05,01,07,12,134.00
2011,05,01,07,13,136.60
2011,05,01,07,14,141.10
2011,05,01,07,15,144.50
2011,05,01,07,16,147.20
2011,05,01,07,17,151.20
2011,05,01,07,18,154.30
2011,05,01,07,19,157.50
2011,05,01,07,20,162.00
2011,05,01,07,21,164.00
2011,05,01,07,22,167.80
2011,05,01,07,23,170.80
2011,05,01,07,24,174.90
2011,05,01,07,25,178.60
2011,05,01,07,26,181.60
2011,05,01,07,27,185.90
2011,05,01,07,28,189.70
2011,05,01,07,29,193.70
2011,05,01,07,30,198.00
2011,05,01,07,31,201.60
2011,05,01,07,32,202.90
2011,05,01,07,33,208.30
2011,05,01,07,34,212.50
2011,05,01,07,35,215.20
2011,05,01,07,36,219.00
2011,05,01,07,37,222.90
2011,05,01,07,38,227.30
2011,05,01,07,39,229.30
2011,05,01,07,40,232.10
2011,05,01,07,41,235.30
2011,05,01,07,42,236.80
2011,05,01,07,43,240.80
2011,05,01,07,44,243.50
2011,05,01,07,45,246.70
2011,05,01,07,46,249.00
2011,05,01,07,47,251.90
2011,05,01,07,48,254.60
2011,05,01,07,49,257.10
2011,05,01,07,50,260.50
2011,05,01,07,51,263.20
2011,05,01,07,52,267.10
2011,05,01,07,53,270.30
2011,05,01,07,54,273.50
2011,05,01,07,55,276.10
2011,05,01,07,56,278.30
2011,05,01,07,57,279.00
2011,05,01,07,58,280.10
2011,05,01,07,59,283.70
2011,05,01,08,00,286.70
2011,05,01,08,01,290.40
2011,05,01,08,02,294.80
2011,05,01,08,03,298.80
2011,05,01,08,04,302.70
2011,05,01,08,05,307.00
2011,05,01,08,06,308.90
2011,05,01,08,07,311.50
2011,05,01,08,08,315.30
2011,05,01,08,09,316.80
2011,05,01,08,10,320.40
2011,05,01,08,11,322.70
2011,05,01,08,12,326.60
2011,05,01,08,13,329.20
2011,05,01,08,14,330.60
2011,05,01,08,15,333.00
2011,05,01,08,16,336.40
2011,05,01,08,17,338.70
2011,05,01,08,18,340.90
2011,05,01,08,19,343.70
2011,05,01,08,20,349.40
2011,05,01,08,21,353.40
2011,05,01,08,22,357.40
2011,05,01,08,23,359.80
2011,05,01,08,24,363.70
2011,05,01,08,25,366.70
2011,05,01,08,26,369.60
2011,05,01,08,27,372.00
2011,05,01,08,28,373.60
2011,05,01,08,29,375.60
2011,05,01,08,30,380.10
2011,05,01,08,31,383.40
2011,05,01,08,32,387.70
2011,05,01,08,33,391.00
2011,05,01,08,34,392.60
2011,05,01,08,35,396.30
2011,05,01,08,36,399.10
2011,05,01,08,37,401.50
2011,05,01,08,38,403.40
2011,05,01,08,39,406.20
2011,05,01,08,40,409.40
2011,05,01,08,41,410.80
2011,05,01,08,42,415.10
2011,05,01,08,43,419.70
2011,05,01,08,44,427.00
2011,05,01,08,45,429.40
2011,05,01,08,46,428.10
2011,05,01,08,47,430.50
2011,05,01,08,48,432.50
2011,05,01,08,49,436.60
2011,05,01,08,50,442.50
2011,05,01,08,51,455.60
2011,05,01,08,52,461.00
2011,05,01,08,53,461.00
2011,05,01,08,54,452.30
2011,05,01,08,55,454.80
2011,05,01,08,56,458.00
2011,05,01,08,57,460.80
2011,05,01,08,58,463.50
2011,05,01,08,59,463.70
2011,05,01,09,00,455.80
2011,05,01,09,01,450.00
2011,05,01,09,02,448.10
2011,05,01,09,03,449.70
2011,05,01,09,04,452.00
2011,05,01,09,05,444.80
2011,05,01,09,06,456.20
2011,05,01,09,07,467.00
2011,05,01,09,08,474.60
2011,05,01,09,09,481.90
2011,05,01,09,10,486.60
2011,05,01,09,11,501.20
2011,05,01,09,12,497.40
2011,05,01,09,13,499.00
2011,05,01,09,14,499.00
2011,05,01,09,15,501.50
2011,05,01,09,16,503.00
2011,05,01,09,17,503.90
2011,05,01,09,18,503.30
2011,05,01,09,19,507.10
2011,05,01,09,20,516.50
2011,05,01,09,21,520.00
2011,05,01,09,22,521.70
2011,05,01,09,23,526.60
2011,05,01,09,24,525.90
2011,05,01,09,25,532.20
2011,05,01,09,26,537.50
2011,05,01,09,27,540.70
2011,05,01,09,28,544.50
2011,05,01,09,29,546.20
2011,05,01,09,30,538.70
2011,05,01,09,31,533.50
2011,05,01,09,32,534.00
2011,05,01,09,33,533.30
2011,05,01,09,34,529.50
2011,05,01,09,35,514.70
2011,05,01,09,36,463.30
2011,05,01,09,37,481.30
2011,05,01,09,38,508.00
2011,05,01,09,39,528.80
2011,05,01,09,40,541.30
2011,05,01,09,41,570.90
2011,05,01,09,42,576.00
2011,05,01,09,43,579.00
2011,05,01,09,44,581.20
2011,05,01,09,45,582.00
2011,05,01,09,46,584.70
2011,05,01,09,47,585.50
2011,05,01,09,48,587.00
2011,05,01,09,49,588.90
2011,05,01,09,50,591.70
2011,05,01,09,51,593.60
2011,05,01,09,52,597.90
2011,05,01,09,53,599.90
2011,05,01,09,54,603.80
2011,05,01,09,55,605.50
2011,05,01,09,56,607.30
2011,05,01,09,57,609.70
2011,05,01,09,58,613.00
2011,05,01,09,59,615.40
2011,05,01,10,00,617.80
2011,05,01,10,01,620.10
2011,05,01,10,02,623.10
2011,05,01,10,03,625.70
2011,05,01,10,04,628.10
2011,05,01,10,05,629.00
2011,05,01,10,06,630.60
2011,05,01,10,07,634.10
2011,05,01,10,08,635.70
2011,05,01,10,09,637.70
2011,05,01,10,10,640.40
2011,05,01,10,11,643.60
2011,05,01,10,12,645.90
2011,05,01,10,13,648.20
2011,05,01,10,14,651.20
2011,05,01,10,15,652.20
2011,05,01,10,16,656.20
2011,05,01,10,17,657.60
2011,05,01,10,18,658.10
2011,05,01,10,19,660.70
2011,05,01,10,20,663.00
2011,05,01,10,21,665.60
2011,05,01,10,22,666.70
2011,05,01,10,23,670.00
2011,05,01,10,24,670.50
2011,05,01,10,25,671.00
2011,05,01,10,26,674.10
2011,05,01,10,27,678.70
2011,05,01,10,28,679.20
2011,05,01,10,29,680.70
2011,05,01,10,30,683.00
2011,05,01,10,31,685.30
2011,05,01,10,32,686.80
2011,05,01,10,33,689.10
2011,05,01,10,34,691.40
2011,05,01,10,35,694.10
2011,05,01,10,36,696.00
2011,05,01,10,37,697.30
2011,05,01,10,38,699.70
2011,05,01,10,39,701.00
2011,05,01,10,40,702.10
2011,05,01,10,41,705.80
2011,05,01,10,42,707.00
2011,05,01,10,43,707.70
2011,05,01,10,44,711.30
2011,05,01,10,45,714.00
2011,05,01,10,46,715.50
2011,05,01,10,47,717.00
2011,05,01,10,48,718.10
2011,05,01,10,49,721.10
2011,05,01,10,50,723.70
2011,05,01,10,51,723.30
2011,05,01,10,52,721.00
2011,05,01,10,53,726.90
2011,05,01,10,54,731.00
2011,05,01,10,55,736.00
2011,05,01,10,56,735.30
2011,05,01,10,57,736.70
2011,05,01,10,58,733.80
2011,05,01,10,59,731.90
2011,05,01,11,00,743.60
2011,05,01,11,01,733.20
2011,05,01,11,02,717.50
2011,05,01,11,03,735.00
2011,05,01,11,04,743.00
2011,05,01,11,05,751.80
2011,05,01,11,06,745.00
2011,05,01,11,07,753.60
2011,05,01,11,08,730.90
2011,05,01,11,09,722.00
2011,05,01,11,10,750.40
2011,05,01,11,11,762.70
2011,05,01,11,12,745.60
2011,05,01,11,13,756.60
2011,05,01,11,14,765.70
2011,05,01,11,15,745.00
2011,05,01,11,16,732.90
2011,05,01,11,17,730.20
2011,05,01,11,18,727.70
2011,05,01,11,19,764.80
2011,05,01,11,20,732.90
2011,05,01,11,21,757.80
2011,05,01,11,22,763.80
2011,05,01,11,23,765.60
2011,05,01,11,24,762.50
2011,05,01,11,25,776.00
2011,05,01,11,26,780.30
2011,05,01,11,27,788.20
2011,05,01,11,28,784.30
2011,05,01,11,29,787.10
2011,05,01,11,30,787.40
2011,05,01,11,31,787.70
2011,05,01,11,32,796.50
2011,05,01,11,33,800.60
2011,05,01,11,34,803.30
2011,05,01,11,35,807.40
2011,05,01,11,36,812.70
2011,05,01,11,37,814.10
2011,05,01,11,38,816.50
2011,05,01,11,39,819.70
2011,05,01,11,40,818.60
2011,05,01,11,41,803.80
2011,05,01,11,42,804.20
2011,05,01,11,43,801.00
2011,05,01,11,44,811.60
2011,05,01,11,45,824.70
2011,05,01,11,46,824.60
2011,05,01,11,47,807.10
2011,05,01,11,48,784.10
2011,05,01,11,49,789.60
2011,05,01,11,50,782.30
2011,05,01,11,51,796.10
2011,05,01,11,52,801.50
2011,05,01,11,53,814.30
2011,05,01,11,54,823.00
2011,05,01,11,55,816.30
2011,05,01,11,56,796.90
2011,05,01,11,57,788.90
2011,05,01,11,58,815.70
2011,05,01,11,59,822.30
2011,05,01,12,00,810.00
2011,05,01,12,01,784.50
2011,05,01,12,02,807.80
2011,05,01,12,03,812.90
2011,05,01,12,04,821.00
2011,05,01,12,05,825.40
2011,05,01,12,06,821.90
2011,05,01,12,07,810.60
2011,05,01,12,08,801.40
2011,05,01,12,09,812.60
2011,05,01,12,10,817.70
2011,05,01,12,11,822.60
2011,05,01,12,12,824.00
2011,05,01,12,13,827.30
2011,05,01,12,14,819.70
2011,05,01,12,15,812.60
2011,05,01,12,16,816.60
2011,05,01,12,17,818.50
2011,05,01,12,18,819.00
2011,05,01,12,19,832.00
2011,05,01,12,20,844.20
2011,05,01,12,21,850.80
2011,05,01,12,22,853.60
2011,05,01,12,23,857.10
2011,05,01,12,24,851.50
2011,05,01,12,25,847.00
2011,05,01,12,26,845.30
2011,05,01,12,27,840.10
2011,05,01,12,28,838.00
2011,05,01,12,29,844.30
2011,05,01,12,30,845.70
2011,05,01,12,31,842.00
2011,05,01,12,32,841.30
2011,05,01,12,33,832.00
2011,05,01,12,34,810.30
2011,05,01,12,35,777.20
2011,05,01,12,36,724.70
2011,05,01,12,37,689.30
2011,05,01,12,38,689.90
2011,05,01,12,39,688.00
2011,05,01,12,40,698.30
2011,05,01,12,41,693.50
2011,05,01,12,42,693.10
2011,05,01,12,43,687.50
2011,05,01,12,44,690.60
2011,05,01,12,45,689.80
2011,05,01,12,46,691.80
2011,05,01,12,47,709.00
2011,05,01,12,48,738.30
2011,05,01,12,49,745.10
2011,05,01,12,50,735.00
2011,05,01,12,51,728.00
2011,05,01,12,52,725.20
2011,05,01,12,53,745.60
2011,05,01,12,54,771.00
2011,05,01,12,55,786.60
2011,05,01,12,56,783.20
2011,05,01,12,57,771.50
2011,05,01,12,58,750.20
2011,05,01,12,59,738.30
2011,05,01,13,00,744.10
2011,05,01,13,01,751.40
2011,05,01,13,02,766.00
2011,05,01,13,03,763.00
2011,05,01,13,04,754.50
2011,05,01,13,05,731.60
2011,05,01,13,06,719.30
2011,05,01,13,07,723.70
2011,05,01,13,08,741.50
2011,05,01,13,09,764.00
2011,05,01,13,10,778.10
2011,05,01,13,11,788.10
2011,05,01,13,12,790.30
2011,05,01,13,13,798.70
2011,05,01,13,14,797.90
2011,05,01,13,15,797.30
2011,05,01,13,16,798.00
2011,05,01,13,17,793.80
2011,05,01,13,18,798.00
2011,05,01,13,19,798.00
2011,05,01,13,20,800.60
2011,05,01,13,21,801.00
2011,05,01,13,22,796.70
2011,05,01,13,23,788.60
2011,05,01,13,24,791.50
2011,05,01,13,25,794.90
2011,05,01,13,26,801.80
2011,05,01,13,27,806.40
2011,05,01,13,28,799.20
2011,05,01,13,29,805.90
2011,05,01,13,30,811.40
2011,05,01,13,31,810.90
2011,05,01,13,32,818.80
2011,05,01,13,33,828.20
2011,05,01,13,34,824.80
2011,05,01,13,35,819.80
2011,05,01,13,36,820.30
2011,05,01,13,37,812.00
2011,05,01,13,38,816.00
2011,05,01,13,39,815.30
2011,05,01,13,40,814.40
2011,05,01,13,41,823.90
2011,05,01,13,42,826.40
2011,05,01,13,43,826.00
2011,05,01,13,44,830.00
2011,05,01,13,45,818.00
2011,05,01,13,46,811.90
2011,05,01,13,47,806.20
2011,05,01,13,48,813.50
2011,05,01,13,49,815.60
2011,05,01,13,50,815.20
2011,05,01,13,51,821.40
2011,05,01,13,52,820.90
2011,05,01,13,53,814.60
2011,05,01,13,54,818.50
2011,05,01,13,55,822.00
2011,05,01,13,56,823.00
2011,05,01,13,57,819.80
2011,05,01,13,58,815.60
2011,05,01,13,59,810.00
2011,05,01,14,00,813.50
2011,05,01,14,01,816.40
2011,05,01,14,02,812.60
2011,05,01,14,03,812.00
2011,05,01,14,04,802.50
2011,05,01,14,05,800.40
2011,05,01,14,06,795.60
2011,05,01,14,07,795.60
2011,05,01,14,08,795.30
2011,05,01,14,09,795.90
2011,05,01,14,10,805.00
2011,05,01,14,11,823.50
2011,05,01,14,12,832.90
2011,05,01,14,13,833.60
2011,05,01,14,14,835.20
2011,05,01,14,15,841.30
2011,05,01,14,16,843.70
2011,05,01,14,17,840.80
2011,05,01,14,18,825.40
2011,05,01,14,19,815.80
2011,05,01,14,20,827.50
2011,05,01,14,21,830.00
2011,05,01,14,22,832.50
2011,05,01,14,23,821.10
2011,05,01,14,24,772.20
2011,05,01,14,25,763.20
2011,05,01,14,26,766.00
2011,05,01,14,27,739.40
2011,05,01,14,28,781.20
2011,05,01,14,29,759.30
2011,05,01,14,30,723.30
2011,05,01,14,31,706.10
2011,05,01,14,32,719.00
2011,05,01,14,33,712.80
2011,05,01,14,34,709.30
2011,05,01,14,35,695.20
2011,05,01,14,36,665.00
2011,05,01,14,37,674.00
2011,05,01,14,38,705.80
2011,05,01,14,39,728.40
2011,05,01,14,40,729.00
2011,05,01,14,41,722.80
2011,05,01,14,42,722.50
2011,05,01,14,43,730.30
2011,05,01,14,44,744.90
2011,05,01,14,45,754.10
2011,05,01,14,46,762.50
2011,05,01,14,47,771.80
2011,05,01,14,48,772.70
2011,05,01,14,49,766.70
2011,05,01,14,50,772.90
2011,05,01,14,51,778.00
2011,05,01,14,52,770.10
2011,05,01,14,53,752.50
2011,05,01,14,54,735.00
2011,05,01,14,55,737.10
2011,05,01,14,56,738.00
2011,05,01,14,57,729.50
2011,05,01,14,58,716.60
2011,05,01,14,59,710.20
2011,05,01,15,00,722.70
2011,05,01,15,01,724.50
2011,05,01,15,02,717.90
2011,05,01,15,03,717.90
2011,05,01,15,04,725.30
2011,05,01,15,05,734.80
2011,05,01,15,06,734.60
2011,05,01,15,07,742.00
2011,05,01,15,08,763.70
2011,05,01,15,09,773.10
2011,05,01,15,10,766.00
2011,05,01,15,11,768.90
2011,05,01,15,12,779.50
2011,05,01,15,13,775.40
2011,05,01,15,14,771.60
2011,05,01,15,15,765.30
2011,05,01,15,16,761.20
2011,05,01,15,17,750.70
2011,05,01,15,18,748.60
2011,05,01,15,19,740.80
2011,05,01,15,20,733.40
2011,05,01,15,21,737.10
2011,05,01,15,22,749.50
2011,05,01,15,23,758.00
2011,05,01,15,24,750.30
2011,05,01,15,25,729.80
2011,05,01,15,26,727.60
2011,05,01,15,27,720.80
2011,05,01,15,28,727.20
2011,05,01,15,29,727.30
2011,05,01,15,30,720.90
2011,05,01,15,31,701.70
2011,05,01,15,32,690.70
2011,05,01,15,33,670.80
2011,05,01,15,34,678.80
2011,05,01,15,35,682.90
2011,05,01,15,36,675.00
2011,05,01,15,37,673.00
2011,05,01,15,38,678.50
2011,05,01,15,39,677.00
2011,05,01,15,40,681.10
2011,05,01,15,41,678.20
2011,05,01,15,42,675.50
2011,05,01,15,43,674.80
2011,05,01,15,44,669.70
2011,05,01,15,45,670.20
2011,05,01,15,46,679.10
2011,05,01,15,47,687.00
2011,05,01,15,48,689.00
2011,05,01,15,49,690.30
2011,05,01,15,50,681.20
2011,05,01,15,51,687.70
2011,05,01,15,52,680.40
2011,05,01,15,53,665.80
2011,05,01,15,54,670.80
2011,05,01,15,55,681.60
2011,05,01,15,56,686.20
2011,05,01,15,57,685.20
2011,05,01,15,58,680.50
2011,05,01,15,59,676.50
2011,05,01,16,00,671.90
2011,05,01,16,01,672.50
2011,05,01,16,02,666.00
2011,05,01,16,03,656.30
2011,05,01,16,04,657.70
2011,05,01,16,05,665.00
2011,05,01,16,06,666.00
2011,05,01,16,07,663.10
2011,05,01,16,08,661.20
2011,05,01,16,09,656.40
2011,05,01,16,10,655.40
2011,05,01,16,11,654.00
2011,05,01,16,12,649.90
2011,05,01,16,13,645.80
2011,05,01,16,14,637.50
2011,05,01,16,15,635.60
2011,05,01,16,16,636.80
2011,05,01,16,17,635.80
2011,05,01,16,18,633.20
2011,05,01,16,19,617.70
2011,05,01,16,20,622.60
2011,05,01,16,21,621.00
2011,05,01,16,22,615.80
2011,05,01,16,23,609.80
2011,05,01,16,24,591.80
2011,05,01,16,25,599.10
2011,05,01,16,26,606.60
2011,05,01,16,27,608.00
2011,05,01,16,28,605.00
2011,05,01,16,29,599.20
2011,05,01,16,30,600.70
2011,05,01,16,31,599.40
2011,05,01,16,32,601.70
2011,05,01,16,33,601.10
2011,05,01,16,34,595.90
2011,05,01,16,35,587.00
2011,05,01,16,36,583.60
2011,05,01,16,37,576.40
2011,05,01,16,38,573.50
2011,05,01,16,39,577.50
2011,05,01,16,40,571.10
2011,05,01,16,41,566.40
2011,05,01,16,42,558.70
2011,05,01,16,43,550.10
2011,05,01,16,44,542.30
2011,05,01,16,45,534.30
2011,05,01,16,46,528.30
2011,05,01,16,47,524.60
2011,05,01,16,48,525.00
2011,05,01,16,49,518.50
2011,05,01,16,50,518.20
2011,05,01,16,51,517.40
2011,05,01,16,52,515.00
2011,05,01,16,53,515.00
2011,05,01,16,54,505.70
2011,05,01,16,55,501.60
2011,05,01,16,56,495.60
2011,05,01,16,57,464.10
2011,05,01,16,58,438.10
2011,05,01,16,59,420.30
2011,05,01,17,00,378.00
2011,05,01,17,01,390.90
2011,05,01,17,02,401.80
2011,05,01,17,03,405.20
2011,05,01,17,04,384.50
2011,05,01,17,05,398.50
2011,05,01,17,06,389.70
2011,05,01,17,07,405.50
2011,05,01,17,08,442.10